CW6020 Teulada ES current weather conditions

sailwx.info

Wind from 210

Air temperature 15.6° C
Dewpoint 14.4° C

Last reported at 2014-Oct-31 19:40 UTC.
Time now 2014-Nov-01 13:58 UTC

Location: N 38°44' E 000°06'.
View on Google Maps.

See reports from other nearby stations

  
Tides and Currents Weather Stations Pressure Air Temp Water Temp Dewpoint Dewpoint Depression Visibility Wind Speed Wind Dir Waves Ship Positions
date/time (UTC)wind fromknots sea level pressurealtimeterstation pressurevisibilityair tempwater tempwave heightnotes
2014-Oct-31 19:40 210 15.6
2014-Oct-31 19:30 225 15.6
2014-Oct-31 19:10 225 16.7
2014-Oct-31 19:00 225 16.7
2014-Oct-31 18:50 225 16.7
2014-Oct-31 18:10 300 17.8
2014-Oct-31 17:50 315 18.3
2014-Oct-31 17:40 270 18.3
2014-Oct-31 17:10 210 1 gusting 1 19.4
2014-Oct-31 17:00 180 1 gusting 1 20.0
2014-Oct-31 16:40 187 1 gusting 3 20.6
2014-Oct-31 16:10 172 2 gusting 3 21.7
2014-Oct-31 16:00 172 2 gusting 3 22.2
2014-Oct-31 15:50 150 1 gusting 3 22.8
2014-Oct-31 15:40 135 2 gusting 3 23.3
2014-Oct-31 15:30 135 3 gusting 4 23.9
2014-Oct-31 14:50 120 3 gusting 6 25.0
2014-Oct-31 14:40 090 3 gusting 5 25.6
2014-Oct-31 14:20 157 3 gusting 6 25.6
2014-Oct-31 14:00 120 3 gusting 6 26.1
2014-Oct-31 13:20 150 3 gusting 6 26.7
2014-Oct-31 13:10 135 1 gusting 3 25.6
2014-Oct-31 12:50 150 1 gusting 3 25.6
2014-Oct-31 12:40 165 1 gusting 2 26.7
2014-Oct-31 12:30 150 1 gusting 2 26.7
2014-Oct-31 12:10 120 1 gusting 2 25.6
2014-Oct-31 11:40 045 1 gusting 2 27.2
2014-Oct-31 11:30 225 1 gusting 2 27.2
2014-Oct-31 11:20 060 3 gusting 4 26.7
2014-Oct-31 10:50 195 2 gusting 3 23.3
2014-Oct-31 10:20 150 1 gusting 2 25.6
2014-Oct-31 09:50 150 0 gusting 2 22.8
2014-Oct-31 09:10 315 1 gusting 2 21.7
2014-Oct-31 08:50 120 21.1
2014-Oct-31 08:40 135 19.4
2014-Oct-31 08:20 195 17.8
2014-Oct-31 08:10 195 16.7
2014-Oct-31 08:00 090 16.1
2014-Oct-31 07:10 135 0 gusting 1 13.3
2014-Oct-31 07:00 120 13.3
2014-Oct-31 06:50 075 13.3
2014-Oct-31 06:40 060 13.3
2014-Oct-31 06:20 090 12.8
2014-Oct-31 06:10 180 1 gusting 2 12.8
2014-Oct-31 06:00 225 12.8
2014-Oct-31 05:40 090 13.3
2014-Oct-31 05:20 090 13.3
2014-Oct-31 05:10 090 13.3
2014-Oct-31 05:00 090 13.3
2014-Oct-31 04:50 090 13.3
2014-Oct-31 04:40 090 13.3
2014-Oct-31 04:10 090 12.8
2014-Oct-31 04:00 090 12.8
2014-Oct-31 03:40 090 13.3
2014-Oct-31 03:30 090 13.3
2014-Oct-31 03:20 090 13.9
2014-Oct-31 03:10 090 13.9
2014-Oct-31 03:00 090 13.9
2014-Oct-31 02:50 090 13.9
2014-Oct-31 02:40 090 13.9
2014-Oct-31 02:30 090 14.4
2014-Oct-31 02:00 090 13.9
2014-Oct-31 01:50 090 13.9
2014-Oct-31 01:40 090 14.4
2014-Oct-31 01:30 090 15.0
2014-Oct-31 01:20 090 15.0
2014-Oct-31 01:10 090 15.0
2014-Oct-31 00:20 120 15.6
2014-Oct-30 23:40 105 15.6
2014-Oct-30 23:20 135 15.6
2014-Oct-30 23:10 135 15.6
2014-Oct-30 23:00 165 15.6
2014-Oct-30 22:00 075 0 gusting 1 16.7
2014-Oct-30 21:40 225 16.7
2014-Oct-30 21:20 210 17.2
2014-Oct-30 21:10 180 17.8
2014-Oct-30 21:00 270 17.8
2014-Oct-30 20:50 315 17.8
2014-Oct-30 20:40 255 17.8
2014-Oct-30 20:31 225 17.8
2014-Oct-30 20:20 240 18.3
2014-Oct-30 20:01 240 18.3
2014-Oct-30 19:50 225 18.3
2014-Oct-30 19:40 255 18.3
2014-Oct-30 19:30 285 18.3
2014-Oct-30 19:00 262 18.3
2014-Oct-30 18:40 180 18.3
2014-Oct-30 18:20 285 18.9
2014-Oct-30 18:00 285 18.9
2014-Oct-30 17:50 285 0 gusting 1 18.9
2014-Oct-30 17:40 225 0 gusting 1 19.4
2014-Oct-30 17:30 180 1 gusting 1 19.4
2014-Oct-30 17:20 180 1 gusting 1 19.4
2014-Oct-30 17:10 180 20.0
2014-Oct-30 17:00 180 0 gusting 1 20.6
2014-Oct-30 16:50 202 1 gusting 2 20.6
2014-Oct-30 16:30 180 1 gusting 3 21.1
2014-Oct-30 16:20 165 4 gusting 6 21.1
2014-Oct-30 16:10 150 3 gusting 5 21.7
2014-Oct-30 16:00 135 2 gusting 6 22.2
2014-Oct-30 15:40 120 2 gusting 4 22.8
2014-Oct-30 15:20 150 3 gusting 4 23.9
2014-Oct-30 15:00 210 3 gusting 5 25.0
2014-Oct-30 14:50 135 3 gusting 5 25.6
2014-Oct-30 14:20 150 2 gusting 5 25.6
2014-Oct-30 14:10 135 2 gusting 4 25.6
2014-Oct-30 14:00 172 3 gusting 5 26.1
2014-Oct-30 13:50 187 1 gusting 3 26.1
2014-Oct-30 13:30 210 1 gusting 4 26.1
2014-Oct-30 13:20 150 3 gusting 6 26.7
2014-Oct-30 13:10 135 3 gusting 6 26.7